|
NORAD ID: 22446 Int'l Code: 1993-007A
Perigee: 21,286.1 km
Apogee: 21,415.4 km
Inclination: 54.9 °
Period: 765.6 minutes
Semi major axis: 27721 km
Launch date: February 3, 1993
Source: United States (US)
Two Line Element Set (TLE):
1 22446U 93007A 13140.93010359 -.00000054 00000-0 00000+0 0 5913
2 22446 054.9122 051.9977 0023319 306.8494 086.8797 01.88092512144238
Source:
NASA's NSSDC Master Catalog entry for NAVSTAR 30 (USA 88)
|